CZ-6A DEB, 55210

Orbit data source: Space-Track

CZ-6A DEB, 55210 is space debris in SSO originally from a launch on Fri, 11 Nov 2022 UTC launched from the Taiyaun Space Center, China (TSC). Debris objects in space refer to the collection of defunct objects orbiting the Earth. Examples of debris include non-operational satellites, rocket bodies, and fragments generated from explosions, collisions, or faulty payload assembly.

Loading next visibility...
Identifier
55210, 2022-151WB
Orbit
SSO
Country
Flag of CNCN / PRC
Related business
Manufacturer
SAST
Mission
Spacecraft
Bus & Motor
Unknown
Mass
Unknown
Launch date (UTC)
2022-11-11 (4 years ago)
Launch vehicle
Unknown
Launch site
Taiyaun Space Center, China (TSC)
Object type
Payload
Rocket body
Debris
Shape & HBR
Unknown shape, 0.1 m
Radar Cross Section
Small (<0.1 m²)

Expand to show TLE details & history
Last TLE update: 22 hours ago

TLE from 22 hours ago
0 CZ-6A DEB
1 55210U 22151WB  26263.59470582  .00002549  00000-0  83086-3 0  9991
2 55210  98.7466 299.5448 0037487  18.7644 341.4915 14.39178821195641
Epoch: 2026-09-20T14:16Z
TLE epoch observation values (Epoch: 2026-09-20T14:16:22.582Z)
Latitude
-0.00006°
Longitude
85.96408°
Altitude
738.778 km
Speed
7.499 km/s
True Right ascension
19h 58m 10s
True Declination
0° 00' 00"
Sunlit
Object was in full shadow at epoch
Visualization orbit readout
Latitude
Unknown
Longitude
Unknown
Altitude
Unknown
Speed
Unknown
Apparent Right ascension
Unknown
Apparent Declination
Unknown
Sunlit
N/A
Visualization observer readout
Local Sidereal Time
04:57:35
Azimuth
Unknown
Elevation
Unknown
Doppler factor
Unknown
Orbital elements
Apogee altitude
785.1 km
Perigee altitude
731.595 km
Semi-major axis
7,136.485 km
Eccentricity
0.00375
Inclination
98.7466°
RAAN
299.5448°
Arg. of periapsis
18.7644°
True anomaly
341.35453°
Mean anomaly
341.4915°
Eccentric anomaly
341.42307°
Mean motion
3.60012 °/min
Orbital period
100 mins
BSTAR
0.00083086
Loading maneuver chart data...
Computing Atmospheric mass density...
Loading historical data...
Loading historical data...
Loading historical data...
Loading historical data...
Loading historical data...
Loading historical data...
Loading historical data...

Documentation

Showing up to 5 results
|